TimeCST,TemperatureF,Dew PointF,Humidity,Sea Level PressureIn,VisibilityMPH,Wind Direction,Wind SpeedMPH,Gust SpeedMPH,PrecipitationIn,Events,Conditions,WindDirDegrees,DateUTC
12:55 AM,42.8,23.0,46,29.94,10.0,SW,16.1,-,N/A,,Clear,220,2012-11-25 06:55:00
1:55 AM,43.0,23.5,46,29.92,10.0,SSW,18.4,-,N/A,,Clear,210,2012-11-25 07:55:00
2:55 AM,42.4,24.1,48,29.92,10.0,SW,16.1,-,N/A,,Clear,220,2012-11-25 08:55:00
3:55 AM,39.0,24.6,56,29.94,10.0,WSW,8.1,-,N/A,,Clear,240,2012-11-25 09:55:00
4:55 AM,37.9,25.0,60,29.94,10.0,SW,9.2,-,N/A,,Clear,220,2012-11-25 10:55:00
5:55 AM,40.5,24.3,52,29.93,10.0,SW,11.5,-,N/A,,Clear,230,2012-11-25 11:55:00
6:55 AM,39.6,24.3,54,29.95,10.0,WSW,9.2,-,N/A,,Clear,240,2012-11-25 12:55:00
7:55 AM,40.1,25.2,55,29.96,10.0,SW,8.1,-,N/A,,Clear,230,2012-11-25 13:55:00
8:55 AM,44.2,25.9,49,29.96,10.0,WSW,9.2,-,N/A,,Clear,250,2012-11-25 14:55:00
9:55 AM,48.6,26.1,42,29.97,10.0,WSW,9.2,-,N/A,,Clear,250,2012-11-25 15:55:00
10:55 AM,51.1,27.1,40,29.96,10.0,WNW,4.6,-,N/A,,Clear,300,2012-11-25 16:55:00
11:55 AM,52.2,28.2,40,29.95,10.0,North,5.8,-,N/A,,Clear,350,2012-11-25 17:55:00
12:55 PM,53.6,29.1,39,29.94,10.0,NNE,6.9,-,N/A,,Clear,30,2012-11-25 18:55:00
1:55 PM,54.7,29.1,38,29.92,10.0,North,3.5,-,N/A,,Clear,360,2012-11-25 19:55:00
2:55 PM,55.9,30.6,38,29.91,10.0,NE,3.5,-,N/A,,Clear,40,2012-11-25 20:55:00
3:55 PM,53.8,30.9,42,29.93,10.0,NE,5.8,-,N/A,,Clear,40,2012-11-25 21:55:00
4:55 PM,49.5,31.1,49,29.95,10.0,NE,4.6,-,N/A,,Clear,50,2012-11-25 22:55:00
5:55 PM,45.0,30.4,57,29.96,10.0,NE,4.6,-,N/A,,Clear,50,2012-11-25 23:55:00
6:55 PM,39.9,32.4,74,29.99,10.0,NNE,9.2,-,N/A,,Clear,30,2012-11-26 00:55:00
7:55 PM,39.6,32.7,76,30.01,10.0,North,8.1,-,N/A,,Clear,10,2012-11-26 01:55:00
8:55 PM,38.8,32.5,78,30.01,10.0,NE,9.2,-,N/A,,Clear,40,2012-11-26 02:55:00
9:55 PM,37.9,31.6,78,30.03,10.0,NE,6.9,-,N/A,,Clear,50,2012-11-26 03:55:00
10:55 PM,37.0,31.5,80,30.04,10.0,NE,9.2,-,N/A,,Clear,50,2012-11-26 04:55:00
11:55 PM,35.1,30.6,84,30.06,10.0,NE,6.9,-,N/A,,Clear,40,2012-11-26 05:55:00